カタログに戻る

KUIPER-00269

運用中通信LEO
NORAD 68587·PAYLOAD·🇺🇸 United States

打ち上げ Apr 4, 2026 から Cape Canaveral Space Force Station

Loading…

次のパス (今後24時間)

TLE

最新Source: CelesTrak SupGP

元期: Sep 15, 2026, 01:48 UTC

1 68587C 26072Q   26258.07569444  .00002220  00000+0  29065-3 0  2581
2 68587  51.8984 135.6725 0001094  96.7556 327.4391 14.79919365    16

AllMySatでKUIPER-00269をリアルタイム追跡

Download on the App Store